Allentown, PA

5:08 PM EDT on July 23, 2017 (GMT -0400)
Allentown

Weather History for KXLL - November, 2013

Change the Weather History Date:

Thursday, November 28, 2013

  Actual Average (KABE) Record (KABE)
Temperature  
Mean Temperature 32 °F -  
Max Temperature 35 °F 50 °F 70 °F (1990)
Min Temperature 28 °F 32 °F 12 °F (1930)
Degree Days  
Heating Degree Days 34    
Moisture  
Dew Point 14 °F    
Average Humidity 50    
Maximum Humidity 64    
Minimum Humidity 38    
Precipitation  
Precipitation 0.00 in - - ()
Sea Level Pressure  
Sea Level Pressure 30.26 in    
Wind  
Wind Speed 10 mph (West)    
Max Wind Speed 17 mph    
Max Gust Speed 26 mph    
Visibility 10 miles    
Events      
Averages and records for this station are not official NWS values.
T = Trace of Precipitation, MM = Missing Value Source: NWS Daily Summary

Daily Weather History Graph

Daily Weather History Graph

Search for Another Location

Airport or City:

Trip Planner

Search our weather history database for the weather conditions in past years. The results will help you decide how hot, cold, wet, or windy it might be!

Date:

Astronomy

Nov. 28, 2013 Rise Set
Actual Time 7:03 AM EST 4:36 PM EST
Civil Twilight 6:33 AM EST 5:06 PM EST
Nautical Twilight 5:59 AM EST 5:40 PM EST
Astronomical Twilight 5:26 AM EST 6:13 PM EST
Moon 2:02 AM EST (11/28) 1:45 PM EST (11/28)
Length of Visible Light 10h 33m
Length of Day
9h 33m
Waning Crescent, 22% of the Moon is Illuminated
Nov 28
Waning Crescent
Dec 2
New
Dec 9
First Quarter
Dec 17
Full
Dec 25
Last Quarter

Hourly Weather History & Observations

Time (EST) Temp. Windchill Dew Point Humidity Pressure Visibility Wind Dir Wind Speed Gust Speed Precip Events Conditions
12:15 AM 32.0 °F 22.5 °F 17.6 °F 55% 29.87 in 10.0 mi West 12.7 mph 23.0 mph N/A   Overcast
12:35 AM 32.0 °F 23.6 °F 17.6 °F 55% 29.88 in 10.0 mi West 10.4 mph 23.0 mph N/A   Overcast
12:55 AM 32.0 °F 22.1 °F 17.6 °F 55% 29.89 in 10.0 mi West 13.8 mph 21.9 mph N/A   Mostly Cloudy
1:15 AM 30.2 °F 20.8 °F 15.8 °F 55% 29.91 in 10.0 mi West 11.5 mph 19.6 mph N/A   Scattered Clouds
1:35 AM 30.2 °F 21.3 °F 15.8 °F 55% 29.92 in 10.0 mi West 10.4 mph 20.7 mph N/A   Scattered Clouds
1:55 AM 30.2 °F 19.8 °F 14.0 °F 51% 29.94 in 10.0 mi WNW 13.8 mph 23.0 mph N/A   Mostly Cloudy
2:15 AM 30.2 °F 19.3 °F 14.0 °F 51% 29.96 in 10.0 mi West 15.0 mph 26.5 mph N/A   Scattered Clouds
2:35 AM 30.2 °F 21.3 °F 14.0 °F 51% 29.98 in 10.0 mi West 10.4 mph 19.6 mph N/A   Scattered Clouds
2:55 AM 30.2 °F 21.9 °F 15.8 °F 55% 29.99 in 10.0 mi West 9.2 mph 16.1 mph N/A   Mostly Cloudy
3:15 AM 30.2 °F 19.3 °F 14.0 °F 51% 30.01 in 10.0 mi West 15.0 mph 21.9 mph N/A   Mostly Cloudy
3:35 AM 30.2 °F 18.5 °F 14.0 °F 51% 30.03 in 10.0 mi West 17.3 mph 21.9 mph N/A   Mostly Cloudy
3:55 AM 30.2 °F 20.2 °F 14.0 °F 51% 30.05 in 10.0 mi West 12.7 mph 19.6 mph N/A   Mostly Cloudy
4:15 AM 30.2 °F 21.3 °F 14.0 °F 51% 30.06 in 10.0 mi West 10.4 mph 19.6 mph N/A   Scattered Clouds
4:35 AM 30.2 °F 19.8 °F 14.0 °F 51% 30.07 in 10.0 mi West 13.8 mph 24.2 mph N/A   Clear
4:55 AM 30.2 °F 21.3 °F 14.0 °F 51% 30.09 in 10.0 mi West 10.4 mph 21.9 mph N/A   Scattered Clouds
5:15 AM 30.2 °F 18.9 °F 14.0 °F 51% 30.09 in 10.0 mi West 16.1 mph 24.2 mph N/A   Mostly Cloudy
5:35 AM 30.2 °F 21.3 °F 14.0 °F 51% 30.11 in 10.0 mi WNW 10.4 mph 16.1 mph N/A   Mostly Cloudy
5:55 AM 28.4 °F 18.5 °F 14.0 °F 55% 30.12 in 10.0 mi WNW 11.5 mph 17.3 mph N/A   Mostly Cloudy
6:15 AM 30.2 °F 22.6 °F 14.0 °F 51% 30.14 in 10.0 mi WNW 8.1 mph 18.4 mph N/A   Scattered Clouds
6:35 AM 30.2 °F 21.3 °F 14.0 °F 51% 30.16 in 10.0 mi WNW 10.4 mph 19.6 mph N/A   Scattered Clouds
6:55 AM 30.2 °F 20.8 °F 14.0 °F 51% 30.18 in 10.0 mi WNW 11.5 mph 17.3 mph N/A   Clear
7:15 AM 30.2 °F 21.3 °F 14.0 °F 51% 30.20 in 10.0 mi WNW 10.4 mph - N/A   Clear
7:35 AM 30.2 °F 21.9 °F 12.2 °F 47% 30.21 in 10.0 mi WNW 9.2 mph - N/A   Clear
7:55 AM 30.2 °F 19.8 °F 12.2 °F 47% 30.23 in 10.0 mi West 13.8 mph 21.9 mph N/A   Clear
8:15 AM 30.2 °F 19.8 °F 12.2 °F 47% 30.24 in 10.0 mi WNW 13.8 mph 20.7 mph N/A   Clear
8:35 AM 30.2 °F 21.9 °F 12.2 °F 47% 30.25 in 10.0 mi WNW 9.2 mph 21.9 mph N/A   Clear
8:55 AM 32.0 °F 21.2 °F 12.2 °F 44% 30.27 in 10.0 mi NW 16.1 mph 23.0 mph N/A   Clear
9:15 AM 32.0 °F 23.6 °F 12.2 °F 44% 30.27 in 10.0 mi WNW 10.4 mph 19.6 mph N/A   Clear
9:35 AM 32.0 °F 22.5 °F 12.2 °F 44% 30.28 in 10.0 mi WNW 12.7 mph 24.2 mph N/A   Clear
9:55 AM 32.0 °F 22.1 °F 10.4 °F 41% 30.29 in 10.0 mi WNW 13.8 mph 20.7 mph N/A   Clear
10:15 AM 32.0 °F 24.2 °F 12.2 °F 44% 30.29 in 10.0 mi NW 9.2 mph 23.0 mph N/A   Clear
10:35 AM 32.0 °F 21.6 °F 10.4 °F 41% 30.30 in 10.0 mi WNW 15.0 mph 20.7 mph N/A   Scattered Clouds
10:55 AM 33.8 °F 23.5 °F 12.2 °F 41% 30.30 in 10.0 mi WNW 16.1 mph 24.2 mph N/A   Scattered Clouds
11:15 AM 32.0 °F 23.0 °F 12.2 °F 44% 30.30 in 10.0 mi WNW 11.5 mph 19.6 mph N/A   Scattered Clouds
11:35 AM 33.8 °F 25.8 °F 10.4 °F 38% 30.30 in 10.0 mi WNW 10.4 mph 25.3 mph N/A   Scattered Clouds
11:55 AM 33.8 °F 25.3 °F 12.2 °F 41% 30.29 in 10.0 mi NW 11.5 mph 20.7 mph N/A   Clear
12:15 PM 33.8 °F 24.3 °F 10.4 °F 38% 30.30 in 10.0 mi WNW 13.8 mph 21.9 mph N/A   Clear
12:35 PM 33.8 °F 23.5 °F 10.4 °F 38% 30.30 in 10.0 mi WNW 16.1 mph 21.9 mph N/A   Clear
12:55 PM 33.8 °F 24.3 °F 10.4 °F 38% 30.30 in 10.0 mi WNW 13.8 mph 20.7 mph N/A   Clear
1:15 PM 33.8 °F 23.5 °F 10.4 °F 38% 30.30 in 10.0 mi WNW 16.1 mph 21.9 mph N/A   Clear
1:35 PM 35.6 °F 28.0 °F 12.2 °F 38% 30.31 in 10.0 mi NW 10.4 mph 16.1 mph N/A   Clear
1:55 PM 33.8 °F 27.0 °F 12.2 °F 41% 30.31 in 10.0 mi NW 8.1 mph - N/A   Scattered Clouds
2:15 PM 33.8 °F 26.4 °F 10.4 °F 38% 30.31 in 10.0 mi WNW 9.2 mph 16.1 mph N/A   Scattered Clouds
2:35 PM 33.8 °F 27.7 °F 10.4 °F 38% 30.32 in 10.0 mi WNW 6.9 mph 17.3 mph N/A   Scattered Clouds
2:55 PM 33.8 °F 25.8 °F 12.2 °F 41% 30.32 in 10.0 mi NW 10.4 mph - N/A   Clear
3:15 PM 33.8 °F 27.7 °F 12.2 °F 41% 30.32 in 10.0 mi NW 6.9 mph - N/A   Clear
3:35 PM 32.0 °F 24.8 °F 12.2 °F 44% 30.34 in 10.0 mi WNW 8.1 mph - N/A   Mostly Cloudy
3:55 PM 32.0 °F 25.6 °F 12.2 °F 44% 30.35 in 10.0 mi West 6.9 mph - N/A   Scattered Clouds
4:15 PM 32.0 °F 26.4 °F 12.2 °F 44% 30.35 in 10.0 mi WNW 5.8 mph - N/A   Clear
4:35 PM 32.0 °F 25.6 °F 14.0 °F 48% 30.37 in 10.0 mi West 6.9 mph - N/A   Clear
4:55 PM 32.0 °F 27.5 °F 14.0 °F 48% 30.37 in 10.0 mi West 4.6 mph - N/A   Clear
5:15 PM 32.0 °F 28.7 °F 15.8 °F 51% 30.38 in 10.0 mi West 3.5 mph - N/A   Clear
5:35 PM 30.2 °F 26.7 °F 15.8 °F 55% 30.40 in 10.0 mi West 3.5 mph - N/A   Clear
5:55 PM 30.2 °F 25.4 °F 15.8 °F 55% 30.40 in 10.0 mi West 4.6 mph - N/A   Scattered Clouds
6:15 PM 30.2 °F 25.4 °F 17.6 °F 60% 30.41 in 10.0 mi West 4.6 mph - N/A   Mostly Cloudy
6:35 PM 30.2 °F - 17.6 °F 60% 30.42 in 10.0 mi Calm Calm - N/A   Overcast
6:55 PM 30.2 °F 26.7 °F 17.6 °F 60% 30.42 in 10.0 mi West 3.5 mph - N/A   Overcast
7:15 PM 30.2 °F 25.4 °F 17.6 °F 60% 30.43 in 10.0 mi South 4.6 mph - N/A   Overcast
7:35 PM 30.2 °F 25.4 °F 17.6 °F 60% 30.43 in 10.0 mi SSW 4.6 mph - N/A   Overcast
7:55 PM 30.2 °F 25.4 °F 19.4 °F 64% 30.44 in 10.0 mi SSW 4.6 mph - N/A   Mostly Cloudy
8:15 PM 30.2 °F 26.7 °F 19.4 °F 64% 30.45 in 10.0 mi SSW 3.5 mph - N/A   Mostly Cloudy
8:35 PM 32.0 °F 27.5 °F 19.4 °F 60% 30.46 in 10.0 mi WSW 4.6 mph - N/A   Mostly Cloudy
8:55 PM 32.0 °F 28.7 °F 19.4 °F 60% 30.46 in 10.0 mi WSW 3.5 mph - N/A   Mostly Cloudy
9:15 PM 32.0 °F - 17.6 °F 55% 30.46 in 10.0 mi Calm Calm - N/A   Overcast
9:35 PM 32.0 °F 28.7 °F 17.6 °F 55% 30.47 in 10.0 mi West 3.5 mph - N/A   Overcast
9:55 PM 32.0 °F 28.7 °F 17.6 °F 55% 30.47 in 10.0 mi West 3.5 mph - N/A   Overcast
10:15 PM 32.0 °F - 17.6 °F 55% 30.47 in 10.0 mi Calm Calm - N/A   Overcast
10:35 PM 32.0 °F - 17.6 °F 55% 30.47 in 10.0 mi Calm Calm - N/A   Overcast
10:55 PM 32.0 °F 28.7 °F 17.6 °F 55% 30.47 in 10.0 mi SW 3.5 mph - N/A   Overcast
11:15 PM 32.0 °F 28.7 °F 19.4 °F 60% 30.47 in 10.0 mi SW 3.5 mph - N/A   Overcast
11:35 PM 32.0 °F - 19.4 °F 60% 30.48 in 10.0 mi Calm Calm - N/A   Overcast
11:55 PM 30.2 °F 26.7 °F 19.4 °F 64% 30.47 in 10.0 mi SW 3.5 mph - N/A   Overcast